TimeEDT,TemperatureF,Dew PointF,Humidity,Sea Level PressureIn,VisibilityMPH,Wind Direction,Wind SpeedMPH,Gust SpeedMPH,PrecipitationIn,Events,Conditions,WindDirDegrees,DateUTC
12:53 AM,39.0,32.0,76,29.96,10.0,West,5.8,-,N/A,,Clear,280,2013-05-12 04:53:00
1:53 AM,39.0,30.9,73,29.96,10.0,West,6.9,-,N/A,,Clear,280,2013-05-12 05:53:00
2:53 AM,37.9,32.0,79,29.95,10.0,West,8.1,-,N/A,,Clear,270,2013-05-12 06:53:00
3:53 AM,36.0,32.0,86,29.95,10.0,West,5.8,-,N/A,,Clear,260,2013-05-12 07:53:00
4:53 AM,35.1,32.0,89,29.95,10.0,West,5.8,-,N/A,,Clear,260,2013-05-12 08:53:00
5:53 AM,36.0,32.0,86,29.94,10.0,West,5.8,-,N/A,,Clear,270,2013-05-12 09:53:00
6:53 AM,37.0,30.9,79,29.96,10.0,WNW,11.5,18.4,N/A,,Scattered Clouds,300,2013-05-12 10:53:00
7:53 AM,37.9,28.9,70,29.97,10.0,NW,10.4,23.0,N/A,,Scattered Clouds,310,2013-05-12 11:53:00
8:53 AM,39.0,28.0,65,29.99,10.0,NW,17.3,28.8,N/A,,Mostly Cloudy,310,2013-05-12 12:53:00
9:53 AM,42.1,26.1,53,30.01,10.0,NNW,21.9,31.1,N/A,,Mostly Cloudy,340,2013-05-12 13:53:00
10:53 AM,43.0,26.1,51,30.01,10.0,NW,15.0,27.6,N/A,,Overcast,320,2013-05-12 14:53:00
11:53 AM,44.1,26.1,49,30.03,10.0,NW,15.0,26.5,N/A,,Overcast,310,2013-05-12 15:53:00
12:53 PM,46.9,27.0,46,30.03,10.0,West,15.0,24.2,N/A,,Mostly Cloudy,280,2013-05-12 16:53:00
1:53 PM,50.0,27.0,41,30.03,10.0,NW,15.0,-,N/A,,Mostly Cloudy,310,2013-05-12 17:53:00
2:53 PM,48.0,25.0,41,30.04,10.0,WNW,18.4,33.4,N/A,,Mostly Cloudy,290,2013-05-12 18:53:00
3:53 PM,48.0,25.0,41,30.05,10.0,NW,16.1,28.8,N/A,,Overcast,310,2013-05-12 19:53:00
4:53 PM,46.0,25.0,44,30.06,10.0,NW,16.1,28.8,N/A,,Overcast,320,2013-05-12 20:53:00
5:53 PM,46.0,26.1,46,30.07,10.0,WNW,17.3,25.3,N/A,,Overcast,300,2013-05-12 21:53:00
6:53 PM,45.0,25.0,46,30.08,10.0,NW,12.7,-,N/A,,Overcast,320,2013-05-12 22:53:00
7:53 PM,44.1,23.0,43,30.09,10.0,NW,12.7,19.6,N/A,,Mostly Cloudy,320,2013-05-12 23:53:00
8:53 PM,42.1,24.1,49,30.10,10.0,NW,10.4,19.6,N/A,,Scattered Clouds,320,2013-05-13 00:53:00
9:53 PM,39.9,23.0,51,30.12,10.0,NW,6.9,-,N/A,,Clear,320,2013-05-13 01:53:00
10:53 PM,37.0,24.1,59,30.14,10.0,West,3.5,-,N/A,,Clear,280,2013-05-13 02:53:00
11:53 PM,34.0,24.1,67,30.14,10.0,Calm,Calm,-,N/A,,Clear,0,2013-05-13 03:53:00